FW1657 Weather Reports


Display with metric or nautical units.
time (UTC)temp
F
wind
direction
speed
MPH
gust
MPH
rain 1hr
in
rain 24hr
in
rain mn
in
humidity
%
barometer
mb
20260506044544 50 38 4.0 10.0 0.00 0.31 0.01 95 1004.7
20260506043030 50 61 4.0 9.0 0.00 0.31 0.01 95 1004.8
20260506041532 50 38 7.0 13.0 0.00 0.31 0.01 95 1004.9
20260506040027 50 53 7.0 14.0 0.00 0.31 0.01 95 1005.0
20260506034525 50 38 7.0 10.0 0.00 0.31 0.01 95 1005.2
20260506033028 50 10 7.0 11.0 0.00 0.31 0.01 95 1005.2
20260506031539 50 42 6.0 11.0 0.00 0.31 0.01 95 1005.4
20260506030021 50 75 6.0 11.0 0.00 0.31 0.01 95 1005.3
20260506024526 50 59 6.0 10.0 0.00 0.31 0.01 95 1005.4
20260506023018 50 79 8.0 15.0 0.00 0.31 0.01 95 1005.4
20260506021519 51 96 6.0 14.0 0.00 0.31 0.01 95 1005.5
20260506020017 51 81 8.0 12.0 0.00 0.31 0.01 95 1005.3
20260506014515 51 78 7.0 13.0 0.00 0.31 0.01 95 1005.4
20260506013017 51 70 8.0 14.0 0.00 0.31 0.01 95 1005.4
20260506011517 51 53 10.0 19.0 0.00 0.31 0.01 95 1005.6
20260506010031 51 31 8.0 15.0 0.00 0.31 0.01 95 1005.7
20260506004510 51 48 4.0 13.0 0.00 0.31 0.01 95 1005.8
20260506003009 51 53 11.0 19.0 0.00 0.31 0.01 95 1005.9
20260506001507 51 21 11.0 17.0 0.00 0.31 0.01 95 1006.1
20260506000005 51 44 10.0 17.0 0.00 0.31 0.01 95 1006.1
20260505234502 51 358 10.0 19.0 0.00 0.31 0.01 94 1006.2
20260505233120 51 31 9.0 16.0 0.01 0.31 0.01 94 1006.2
20260505231557 52 36 9.0 18.0 0.01 0.31 0.01 94 1006.3
20260505230058 52 36 10.0 14.0 0.01 0.31 0.01 94 1006.2
20260505224552 52 36 7.0 11.0 0.01 0.31 0.01 95 1006.3
20260505223051 52 10 7.0 13.0 0.00 0.31 0.00 94 1006.3
20260505221551 52 44 6.0 10.0 0.00 0.31 0.00 94 1006.4
20260505220046 52 12 5.0 8.0 0.00 0.31 0.00 94 1006.5
20260505214549 52 18 4.0 7.0 0.00 0.31 0.31 94 1006.5
20260505213047 52 29 5.0 10.0 0.00 0.31 0.31 94 1006.6
20260505211547 52 16 5.0 10.0 0.00 0.31 0.31 94 1006.7
20260505210045 53 25 5.0 9.0 0.01 0.31 0.31 94 1006.8
20260505204544 53 21 3.0 5.0 0.01 0.31 0.31 94 1006.8
20260505203043 53 28 4.0 6.0 0.01 0.31 0.31 94 1007.0
20260505201551 53 45 2.0 4.0 0.02 0.31 0.31 94 1007.0
20260505200042 53 65 0.0 3.0 0.05 0.30 0.30 94 1006.7
20260505194541 53 65 1.0 2.0 0.08 0.30 0.30 93 1006.7
20260505193040 53 66 0.0 0.0 0.10 0.30 0.30 94 1006.6
20260505191543 53 65 2.0 4.0 0.13 0.28 0.28 93 1006.6
20260505190040 53 286 1.0 3.0 0.12 0.25 0.25 93 1006.6
20260505184542 53 267 0.0 3.0 0.11 0.22 0.22 93 1006.5
20260505183057 53 267 0.0 3.0 0.10 0.20 0.20 93 1006.5
20260505181537 54 284 3.0 6.0 0.09 0.17 0.17 93 1006.5
20260505180037 54 306 2.0 4.0 0.06 0.13 0.13 92 1006.7
20260505174534 54 317 2.0 4.0 0.03 0.11 0.11 92 1006.6
20260505173042 54 351 2.0 5.0 0.02 0.09 0.09 92 1006.7
20260505171543 54 352 1.0 3.0 0.00 0.08 0.08 92 1006.7
20260505170031 55 352 2.0 4.0 0.00 0.08 0.08 91 1006.8
20260505164531 55 352 1.0 5.0 0.00 0.08 0.08 91 1006.7
20260505163030 55 9 2.0 3.0 0.00 0.08 0.08 91 1006.8
20260505161529 55 11 1.0 3.0 0.00 0.08 0.08 92 1006.8
20260505153026 54 12 1.0 3.0 0.02 0.10 0.08 92 1007.0
20260505151531 54 13 1.0 4.0 0.02 0.10 0.08 92 1007.2
20260505124512 54 71 4.0 11.0 0.03 0.07 0.03 91 1008.1
20260505123012 54 45 6.0 12.0 0.02 0.06 0.02 91 1008.2
20260505121511 55 46 8.0 12.0 0.02 0.06 0.02 90 1008.3
20260505120033 55 27 7.0 12.0 0.01 0.05 0.01 89 1008.3
20260505114511 56 20 5.0 10.0 0.00 0.04 0.00 88 1008.3
20260505113008 56 17 7.0 12.0 0.00 0.04 0.00 87 1008.2
20260505111508 56 16 6.0 10.0 0.00 0.04 0.00 86 1008.4
20260505101534 59 15 6.0 10.0 0.00 0.05 0.00 83 1008.6
20260505100004 59 355 2.0 7.0 0.00 0.05 0.00 83 1008.5
20260505094501 59 328 0.0 5.0 0.00 0.05 0.00 84 1008.6
20260505093102 58 334 4.0 9.0 0.00 0.05 0.00 84 1008.6
20260505091606 58 360 5.0 9.0 0.00 0.05 0.00 85 1008.7
20260505090100 58 351 5.0 9.0 0.00 0.05 0.00 84 1008.8
20260505084555 58 329 4.0 9.0 0.00 0.05 0.00 86 1008.7
20260505083052 56 13 4.0 8.0 0.00 0.05 0.00 87 1008.9
20260505081549 56 8 2.0 4.0 0.00 0.05 0.00 89 1008.9
20260505080049 56 359 2.0 4.0 0.00 0.05 0.00 89 1009.1
20260505074546 55 360 4.0 6.0 0.00 0.05 0.00 90 1009.2
20260505073059 54 340 2.0 6.0 0.00 0.05 0.00 91 1009.5
20260505071540 54 11 1.0 4.0 0.00 0.05 0.00 91 1009.6
20260505070040 54 4 4.0 6.0 0.00 0.05 0.00 92 1009.6
20260505064542 54 354 0.0 0.0 0.00 0.05 0.00 93 1009.7
20260505063037 53 354 0.0 3.0 0.00 0.05 0.00 94 1009.8
20260505061547 52 7 0.0 2.0 0.00 0.05 0.00 94 1009.7
20260505060035 52 7 1.0 3.0 0.00 0.05 0.00 94 1009.8
20260505054556 51 8 2.0 3.0 0.00 0.05 0.00 94 1009.7
20260505053033 51 8 1.0 3.0 0.00 0.05 0.00 94 1009.8
20260505051533 50 8 2.0 3.0 0.00 0.05 0.00 94 1009.7